Theta_e
317 317 311 310 310 306 303 304 293 298 295 285 285 288 284 292 292 289 288 292 289 292 295 296 294 294 291 290 292 293 295 292 295 288 289 296 304 304 304 305 305 306 308 305 306 309 312 312 314 316 317 318 318 317 317 317 317 317 316 317 317 316 316 316 317 316 316 316 317 316 316 316 316 316 317 318 318 318 318 318 318 318 318 318 318 317 317 317 317 317 317 317 317 317 317 315 316
313 311 309 309 307 310 300 303 296 290 289 284 284 287 287 291 291 289 289 291 291 292 294 294 294 293 295 295 293 295 294 296 299 297 300 302 302 302 304 305 305 307 307 305 306 307 309 308 313 314 317 318 318 318 317 317 318 317 317 317 316 317 316 316 316 316 316 316 316 316 316 316 315 315 315 317 317 317 317 317 317 317 317 317 316 316 316 317 316 316 316 317 316 316 316 316 316
309 307 306 307 305 304 306 303 291 288 285 281 283 286 291 289 289 290 292 292 293 294 294 293 293 294 294 294 292 292 286 297 297 298 299 301 298 300 304 306 305 308 308 305 306 305 310 309 311 312 315 318 318 318 317 317 317 317 317 317 316 316 316 316 316 316 316 315 315 315 315 315 314 315 316 316 316 316 316 316 316 316 316 316 316 316 316 316 317 315 315 315 315 316 316 316 316
313 309 304 305 302 305 300 299 293 288 284 283 282 288 290 289 289 291 293 294 293 293 293 293 292 295 292 292 291 294 292 294 298 297 297 297 298 302 303 305 306 305 304 308 306 305 308 311 312 311 312 316 317 317 316 316 317 317 316 316 316 316 316 316 316 316 316 316 315 315 315 315 314 314 316 316 316 316 315 316 315 315 315 315 315 315 316 316 316 316 316 316 316 316 316 316 316
309 311 306 304 306 302 301 296 290 288 283 284 282 288 291 291 291 291 292 293 292 293 293 293 291 295 296 294 295 292 291 296 298 302 298 302 303 303 303 305 304 303 304 305 304 305 308 314 313 310 311 313 316 316 316 316 316 316 316 315 315 315 315 315 315 315 315 314 314 314 314 313 313 313 314 315 315 315 315 315 315 315 315 315 315 316 316 316 316 316 315 315 315 315 315 315 315
310 307 311 306 301 305 303 290 286 284 287 289 286 288 291 291 291 291 292 293 293 293 294 293 292 293 292 295 298 293 296 291 298 300 301 300 303 304 304 307 302 302 303 304 304 304 309 313 313 311 311 312 314 315 315 315 315 315 315 314 314 314 314 314 315 315 315 315 315 313 312 313 313 312 312 314 314 314 315 315 314 314 314 314 315 315 315 315 315 315 315 314 313 314 315 314 314
309 306 309 311 309 308 291 287 285 286 287 291 289 289 290 291 292 291 290 291 293 293 294 293 295 293 290 296 297 300 301 299 297 301 307 302 305 304 304 303 302 302 303 303 303 304 311 311 313 313 311 311 312 313 313 314 314 314 314 314 314 313 313 313 313 313 312 313 313 312 311 311 311 311 311 312 313 313 313 314 314 314 314 314 314 314 314 314 314 314 315 313 313 312 312 312 312
313 304 309 301 298 295 289 287 287 287 287 292 292 290 292 292 292 292 290 291 289 289 292 293 293 291 294 296 291 299 301 302 303 305 303 302 304 303 304 302 301 301 302 302 304 307 314 313 312 313 312 311 311 311 312 313 313 313 313 313 312 313 312 312 311 311 312 311 312 311 310 310 310 310 310 309 311 311 311 313 313 314 313 313 313 313 313 313 313 313 313 312 312 310 310 311 311
308 304 311 305 291 294 287 285 285 290 289 291 291 295 296 293 293 292 291 293 291 293 292 292 292 289 291 292 294 296 297 301 303 306 305 303 302 304 304 303 302 302 303 302 303 308 307 311 312 313 312 311 311 310 310 311 312 313 313 312 312 312 311 310 310 310 310 310 311 310 309 308 308 309 309 308 309 310 310 310 313 313 312 312 312 312 313 312 312 312 312 312 310 309 309 309 309
304 303 300 299 296 286 285 285 285 287 288 291 291 291 292 292 293 294 292 291 291 292 293 294 293 290 292 290 292 295 295 301 301 302 303 303 303 304 303 303 304 303 303 302 302 305 306 315 314 313 312 312 312 311 310 309 310 311 312 312 311 311 310 310 309 308 308 308 309 309 307 306 306 307 306 307 306 309 309 308 311 312 311 311 311 310 311 311 311 311 311 310 309 309 308 307 307
300 303 308 297 290 287 286 285 286 288 288 290 291 293 293 292 292 292 293 292 293 292 292 293 291 290 292 292 294 300 299 300 299 298 301 302 304 303 301 303 304 304 303 304 303 304 310 310 314 312 313 314 312 312 312 310 308 309 311 311 310 310 310 309 308 307 307 307 307 307 306 304 304 305 305 305 304 306 307 307 307 311 311 310 310 309 310 310 310 309 310 309 309 309 307 306 306
299 301 306 295 291 288 286 285 286 287 289 289 288 293 292 293 294 291 291 291 291 292 291 292 291 294 290 292 294 297 298 298 298 300 301 302 302 303 302 301 304 303 304 304 305 304 304 309 310 312 313 312 312 312 312 311 310 309 309 310 310 309 309 308 307 306 305 305 305 305 304 302 302 303 303 303 302 304 304 306 304 308 309 308 308 308 308 309 308 309 309 308 308 307 306 305 305
304 305 299 292 289 288 288 287 285 287 287 288 289 292 293 292 291 292 291 293 291 291 291 292 295 294 289 291 295 298 297 298 299 300 301 300 302 302 303 302 303 304 304 306 303 303 306 304 308 310 311 313 313 312 312 312 310 309 309 309 310 309 308 308 307 305 304 304 303 303 303 301 300 301 301 301 300 302 302 304 302 306 308 307 307 307 307 307 307 307 307 307 307 306 305 304 304
304 303 301 290 292 289 288 286 286 285 286 290 291 293 293 291 292 294 292 291 291 291 294 296 294 295 290 293 293 293 295 299 299 300 300 301 302 301 304 302 304 303 304 305 302 304 304 304 304 309 309 310 306 310 312 313 311 310 309 309 309 309 308 308 307 305 303 302 302 301 301 300 299 299 299 301 298 301 300 301 301 304 306 306 306 306 306 306 306 306 306 306 306 305 305 304 303
302 304 299 295 289 289 288 286 287 287 286 290 292 292 292 294 295 294 292 291 293 295 296 297 298 294 289 291 292 294 296 299 299 302 301 301 301 303 303 303 305 305 303 302 302 302 302 303 304 305 310 308 307 307 308 311 312 310 310 309 309 309 308 307 306 305 303 301 301 301 300 300 300 299 299 300 298 300 299 299 299 302 304 304 304 304 305 305 305 305 305 305 305 305 305 305 304
308 305 300 294 288 288 290 290 291 289 286 291 292 292 291 293 295 292 294 294 294 297 296 292 296 294 296 296 295 296 298 299 300 301 301 301 301 302 302 302 301 301 302 302 302 302 303 302 303 304 305 306 305 305 306 309 313 312 310 310 309 309 308 306 306 305 303 301 301 301 301 300 301 299 301 298 299 299 298 297 298 300 302 302 302 302 303 303 304 304 304 305 306 305 304 304 304
305 307 295 291 287 290 291 290 291 286 289 291 292 292 289 290 293 294 295 296 292 293 293 295 294 297 294 295 297 298 298 301 302 300 303 301 299 298 299 299 300 300 303 302 302 302 303 303 303 303 305 306 306 305 305 306 311 313 311 310 310 310 309 307 306 305 304 302 301 303 302 299 297 295 298 296 299 296 297 297 296 298 300 301 301 302 303 303 303 305 305 305 305 305 304 303 302
306 303 294 291 289 289 291 291 291 291 290 290 291 291 291 289 291 292 294 292 292 292 292 294 295 295 295 297 298 298 299 298 299 299 298 298 298 296 296 297 298 298 299 300 302 303 302 303 303 303 304 305 305 308 308 308 309 312 305 305 305 308 309 309 304 301 304 299 304 300 297 298 296 295 294 298 294 295 295 299 297 298 299 300 301 301 303 304 304 305 305 305 304 304 303 297 297
300 297 295 290 290 290 292 292 292 291 290 291 292 292 292 292 292 292 289 289 290 289 291 293 293 295 296 296 297 297 297 298 298 298 298 298 297 297 297 298 298 298 299 300 300 303 303 302 303 303 303 304 305 306 308 307 305 307 305 305 307 310 307 306 302 303 300 299 300 298 298 295 295 296 295 297 295 298 297 299 299 300 300 300 300 301 303 304 303 304 304 303 303 301 298 293 293
296 297 290 290 292 290 293 294 293 295 294 291 291 291 292 293 292 293 290 289 291 289 289 290 292 292 294 295 297 297 296 296 297 297 297 298 298 298 297 298 298 298 299 300 300 303 303 302 303 304 304 303 304 305 307 306 304 304 304 305 305 306 305 304 302 302 301 301 301 298 297 297 297 296 304 302 300 295 295 302 302 301 302 301 301 302 302 300 301 302 301 302 305 301 293 293 293
296 293 290 290 291 290 291 294 294 294 294 292 291 291 291 293 293 292 291 288 289 291 293 293 292 293 294 296 296 296 296 296 296 297 297 297 298 299 299 298 298 300 300 301 302 303 303 302 302 303 304 304 303 303 305 304 305 303 303 303 304 303 304 304 303 303 302 302 300 299 297 298 298 297 296 296 294 295 294 295 297 296 296 294 302 293 295 295 297 294 294 298 293 294 294 294 293
294 290 292 292 293 289 292 292 292 292 293 293 291 289 290 294 294 291 291 288 287 291 294 295 295 296 295 296 296 296 296 296 296 296 296 297 298 298 299 298 299 298 302 300 300 302 302 303 302 302 303 303 304 303 303 304 306 302 302 302 303 303 304 303 304 303 303 302 300 300 298 297 297 297 296 295 296 296 295 294 294 294 294 294 297 292 293 293 293 293 293 293 293 293 294 294 293
288 291 291 292 292 290 293 292 291 292 293 291 289 292 293 292 291 292 291 291 292 296 295 295 296 296 296 297 297 296 295 295 296 296 297 297 298 298 299 299 298 297 299 299 300 300 302 302 302 301 301 302 303 304 303 303 302 303 302 302 303 303 302 303 302 301 302 302 301 301 298 296 297 296 296 296 296 296 295 295 294 294 294 293 294 292 293 293 293 293 293 293 293 293 293 293 293
293 287 291 291 293 291 292 290 291 290 292 291 292 293 291 290 288 292 291 293 294 296 296 297 297 296 296 297 296 296 296 296 296 297 298 298 299 300 300 299 299 298 298 299 299 299 300 301 302 301 301 301 302 303 302 301 301 303 303 304 304 304 303 302 302 302 303 302 302 300 300 297 296 295 296 296 296 296 296 295 294 294 294 294 294 293 292 292 292 292 292 292 293 293 293 293 293
291 289 291 291 292 291 291 290 290 291 291 291 292 290 290 290 290 291 291 293 295 296 296 296 295 295 295 294 294 295 296 296 296 297 298 298 299 301 301 300 300 299 298 299 299 299 298 300 299 301 301 301 301 303 302 300 300 302 303 302 302 306 302 302 302 303 302 301 302 301 299 297 296 296 295 296 295 295 295 295 295 294 294 294 294 293 293 292 292 292 292 292 292 293 292 293 293
291 290 291 291 291 292 290 291 291 291 292 291 289 289 290 291 292 289 292 293 295 296 296 295 294 293 293 293 293 294 294 296 297 297 297 298 299 299 299 300 300 299 298 298 300 299 299 299 299 299 301 301 300 300 301 301 300 300 302 303 302 304 301 303 302 301 301 300 300 301 300 298 297 295 296 296 295 295 295 295 295 295 294 293 293 293 293 293 292 291 291 292 292 292 292 293 293
293 291 291 290 290 290 292 292 291 291 292 291 288 288 290 291 291 287 293 294 295 294 294 295 294 293 293 293 293 293 294 295 296 297 297 297 298 298 298 299 299 299 299 299 299 299 300 299 299 300 299 301 300 299 299 301 302 300 302 303 304 303 303 304 303 302 302 301 301 301 301 300 299 297 296 296 295 295 295 295 294 295 293 294 293 293 293 293 292 291 291 291 292 292 292 292 292
293 291 290 290 290 291 290 292 290 290 290 290 290 289 290 291 290 289 293 293 295 293 293 294 293 293 293 293 293 293 294 295 295 295 296 296 296 297 297 297 298 298 299 299 298 299 300 300 300 299 299 300 300 299 301 301 300 300 302 304 304 304 304 303 302 303 302 301 301 301 301 300 299 297 297 296 295 295 294 294 294 294 294 294 293 292 294 293 292 292 292 292 292 292 292 292 293
291 291 289 288 289 289 290 290 291 291 290 290 291 288 287 288 288 292 294 294 293 293 293 293 293 293 293 293 293 293 294 294 294 295 296 297 297 298 298 298 298 298 299 299 299 300 299 300 300 300 300 299 299 299 300 301 301 302 302 303 304 306 304 304 303 303 303 302 301 301 301 300 300 298 297 298 298 295 295 295 294 295 294 294 293 294 294 292 292 292 292 292 292 292 291 292 294
293 292 290 288 288 288 290 292 291 289 291 292 291 283 289 289 291 294 295 293 293 292 291 292 293 293 293 293 293 293 294 294 294 295 295 296 297 298 298 299 299 298 298 298 299 300 301 301 302 302 300 300 300 300 300 300 302 302 303 303 304 304 303 302 302 303 302 301 302 302 301 301 299 298 297 297 297 295 296 295 295 295 294 294 293 293 292 292 291 291 291 291 293 292 291 292 291
289 291 291 290 288 287 290 291 290 289 292 291 292 285 288 293 294 295 294 294 293 291 291 291 293 293 293 293 293 293 294 295 295 296 297 297 298 298 298 298 299 299 299 299 300 300 301 300 302 301 302 299 302 301 301 300 300 303 302 303 303 303 304 303 301 302 300 301 302 301 302 301 300 298 298 297 296 296 295 294 294 294 295 293 292 292 291 291 291 292 291 290 290 290 291 292 292
291 287 289 292 289 290 290 292 290 288 292 292 291 284 287 292 294 295 294 293 293 291 291 292 293 293 294 294 294 293 294 295 296 297 298 298 298 297 298 297 298 298 299 299 300 301 299 300 300 298 300 300 301 301 301 301 301 301 303 305 303 303 302 303 301 302 302 300 301 301 302 301 300 299 298 297 296 296 295 294 294 295 294 293 293 292 292 291 292 292 291 291 289 289 291 291 291
292 290 291 290 290 289 291 290 293 293 290 292 290 285 289 290 292 293 294 293 293 292 292 292 293 294 294 294 294 294 294 294 296 297 297 298 299 298 298 298 298 298 298 299 300 300 299 299 301 299 300 300 301 302 302 301 301 301 302 302 303 303 302 301 300 301 301 301 299 299 301 301 300 299 298 298 297 296 294 295 294 294 294 292 292 292 291 292 290 293 290 291 290 289 289 290 291
292 294 291 293 288 288 287 288 291 293 290 287 289 285 287 290 293 294 293 293 292 291 292 293 294 294 294 294 294 294 294 294 295 296 297 298 298 299 299 300 299 299 298 299 300 300 300 299 300 300 300 301 301 302 303 302 303 302 301 302 302 301 302 302 301 300 301 299 299 299 300 301 300 299 298 298 296 296 295 295 294 294 294 292 292 291 291 291 291 291 289 290 290 290 289 289 290
287 287 288 288 289 289 288 289 288 288 289 286 287 287 289 291 293 294 296 294 293 292 292 293 293 293 294 294 294 294 294 294 296 296 298 298 298 299 299 298 298 298 299 299 299 299 300 300 301 301 301 301 301 301 302 303 302 301 301 300 300 300 301 301 300 299 299 300 299 299 300 300 300 299 298 298 297 295 294 294 294 294 294 292 291 292 291 292 291 290 289 289 291 290 290 290 290
289 289 289 288 286 287 288 288 290 290 288 288 287 286 289 292 293 295 296 294 293 293 293 293 293 293 293 294 294 294 295 295 296 297 299 298 298 298 298 298 298 298 298 299 299 298 299 299 299 301 301 301 300 299 302 300 300 299 299 299 299 300 300 300 301 299 301 299 300 299 299 299 298 299 298 298 296 296 294 294 294 294 293 292 292 291 291 291 290 290 290 290 290 290 291 291 289
290 291 291 289 288 290 291 289 290 290 287 286 288 289 290 291 293 295 295 295 292 292 292 293 293 293 293 293 293 294 295 295 299 300 300 299 299 298 297 297 297 297 297 297 297 298 298 299 299 299 300 300 300 298 299 299 298 297 297 298 298 299 300 299 300 300 300 299 299 300 299 299 298 298 298 297 296 297 295 294 295 293 293 293 292 292 292 291 290 290 290 289 289 288 288 289 288
291 289 289 288 291 287 291 290 289 289 287 286 288 288 289 291 293 294 295 294 292 293 292 293 293 293 294 294 294 294 295 300 303 301 300 299 297 298 297 296 297 296 296 296 296 297 297 298 298 299 299 299 299 299 299 299 299 298 297 298 298 298 299 298 298 299 299 300 299 299 298 298 298 297 298 297 296 295 294 293 294 294 293 292 292 292 292 292 291 290 290 288 289 288 287 288 289
291 290 289 288 288 290 291 289 289 289 288 286 287 287 288 291 293 294 295 296 297 298 296 295 294 294 294 294 294 295 296 297 298 298 299 297 299 298 297 296 296 296 296 296 295 296 296 297 298 299 299 299 298 299 299 299 299 300 300 299 300 298 300 300 299 299 300 299 299 298 298 298 298 297 296 297 296 296 294 293 294 293 293 293 291 291 290 290 289 289 289 287 287 288 288 289 287
288 288 286 284 289 285 282 289 289 290 288 286 287 286 288 292 294 294 295 295 296 300 299 299 299 296 296 295 296 297 296 297 298 298 298 297 298 297 296 296 296 296 296 295 296 296 297 298 297 297 298 299 299 299 300 299 300 300 300 300 299 299 297 297 297 298 298 298 298 299 297 297 297 297 296 296 296 296 295 294 294 293 294 293 292 291 290 290 290 289 289 289 287 285 286 287 288
291 292 289 286 286 285 285 286 290 291 290 289 287 286 287 292 291 293 294 295 295 297 297 296 295 298 297 298 296 299 297 299 298 298 298 297 297 297 297 297 298 297 297 297 297 297 298 297 298 298 298 298 299 300 299 298 300 299 298 297 297 297 295 296 295 296 296 296 297 297 297 297 297 297 297 296 296 295 295 295 294 294 293 292 292 291 291 291 291 290 290 289 287 285 284 286 287
290 287 288 288 287 285 286 288 288 286 285 289 287 280 284 290 290 292 295 298 294 296 295 296 295 295 295 295 295 297 299 299 300 298 298 297 298 298 298 298 298 298 298 299 299 299 298 298 299 299 298 298 298 298 298 299 299 298 296 294 293 293 293 292 294 294 295 296 296 297 297 297 297 296 296 296 295 295 295 295 293 293 292 292 293 291 291 290 290 289 289 288 287 288 285 284 285
283 285 287 288 288 287 286 288 286 281 278 287 290 282 279 286 288 292 293 293 293 297 297 297 297 296 295 295 296 296 297 297 297 298 300 297 297 298 299 299 299 299 300 301 300 300 299 299 298 299 298 298 299 298 298 299 298 297 297 296 294 294 293 294 295 296 296 296 297 297 296 297 297 296 296 296 295 295 295 294 294 293 293 292 292 291 290 290 290 289 289 288 287 289 285 283 283
281 285 286 287 287 287 287 287 286 282 288 290 291 286 280 278 286 294 294 291 292 291 293 296 299 297 296 296 297 296 296 297 298 297 297 298 299 298 298 300 301 301 300 301 301 301 300 300 300 299 298 299 298 298 298 298 298 296 296 296 296 296 296 296 297 297 298 298 297 297 296 295 296 296 296 295 295 294 295 294 294 293 292 292 291 290 290 289 290 290 289 288 287 286 286 285 284
286 286 288 287 288 287 287 286 284 285 283 282 284 288 280 279 286 292 293 291 289 290 291 293 295 297 298 298 299 299 300 300 301 299 297 297 297 298 298 300 301 301 302 301 301 300 300 300 301 300 300 299 299 298 298 297 298 297 297 297 296 298 298 299 298 297 296 297 296 295 295 294 295 295 295 295 294 294 294 294 293 292 292 291 292 291 290 290 289 288 287 287 286 285 285 286 285
288 288 289 288 288 287 287 282 282 283 281 280 282 285 279 277 284 288 292 289 288 290 291 293 295 298 298 299 297 297 297 299 300 297 299 299 298 298 298 298 300 300 302 302 301 301 300 300 301 301 300 300 300 298 299 298 297 298 297 297 297 297 297 296 295 295 295 295 295 295 294 294 294 294 295 294 294 294 293 293 293 292 292 291 291 290 289 289 288 287 287 286 286 285 285 285 284
289 289 286 286 286 285 284 283 283 281 281 280 283 285 281 275 282 286 286 290 291 289 290 292 294 295 297 298 296 296 295 295 297 300 299 298 299 299 299 299 299 301 300 300 301 300 300 300 300 300 300 300 300 299 298 298 298 298 298 298 298 297 297 297 295 295 294 294 294 295 294 294 294 294 293 294 294 293 293 293 292 292 292 292 290 289 289 289 288 288 288 287 286 285 284 284 286
287 286 284 283 284 282 283 282 283 279 279 281 281 283 284 276 277 286 290 290 290 291 290 292 293 294 296 295 297 297 297 297 297 297 298 299 298 298 299 297 297 299 300 299 299 299 300 299 299 299 299 299 299 299 298 298 298 298 297 298 298 299 298 298 296 295 295 295 294 294 294 293 293 293 293 292 293 293 293 292 292 292 291 290 289 290 290 289 289 288 286 286 285 285 284 285 283
286 284 285 280 280 281 278 282 278 280 279 281 281 283 278 277 282 288 291 290 291 293 293 294 293 293 294 295 296 296 298 297 298 297 298 299 298 297 296 296 295 296 299 298 298 298 298 298 298 298 298 299 299 299 298 298 298 298 298 298 298 299 299 298 297 296 296 295 295 295 294 293 292 292 292 292 292 292 292 291 291 291 290 290 289 289 289 289 288 287 286 285 285 284 283 283 282
285 283 282 280 274 272 271 274 279 279 281 281 280 283 279 281 287 290 291 293 293 293 294 294 294 295 295 296 296 297 298 298 299 299 299 299 299 300 299 298 297 297 298 299 298 299 298 298 297 298 298 298 298 298 298 298 298 298 298 298 298 298 298 298 298 297 297 296 296 295 295 294 293 292 292 291 292 292 291 291 291 290 289 289 289 288 288 288 287 286 286 285 284 285 284 283 283
284 284 284 279 277 275 270 275 275 274 277 281 281 279 277 279 284 293 293 294 293 292 293 294 295 296 296 295 297 295 295 296 298 298 299 299 300 299 300 300 299 298 299 299 298 298 298 298 298 298 297 297 298 297 297 298 298 298 298 298 298 298 298 298 298 298 297 297 296 296 295 294 293 293 292 292 292 292 291 290 290 290 289 289 289 288 289 287 287 286 286 285 285 285 284 284 282
284 285 284 282 280 282 277 280 278 276 275 277 278 278 282 286 290 292 293 292 293 293 295 294 295 296 298 297 296 295 296 297 298 298 299 300 300 299 299 299 299 299 299 298 298 298 298 298 298 298 298 297 298 297 297 297 297 298 297 297 298 298 297 297 297 297 297 297 297 296 295 294 294 292 292 292 291 291 290 289 289 289 288 288 288 287 287 286 285 284 284 285 284 286 284 283 282
284 284 282 283 285 283 279 276 277 276 276 275 279 282 285 290 289 292 292 291 292 292 294 294 295 297 297 298 296 295 296 296 296 297 296 297 298 299 299 298 298 298 299 299 300 299 299 298 298 298 297 297 297 297 297 297 297 296 297 297 297 297 297 296 297 296 296 297 297 296 295 294 293 293 292 291 291 290 289 288 288 288 287 287 286 286 286 285 285 284 285 284 283 283 283 282 282
282 280 282 285 283 282 280 277 278 277 274 276 281 277 278 280 280 290 290 289 291 292 293 294 296 296 295 297 295 296 296 297 297 296 297 297 297 298 299 299 299 298 298 298 299 299 300 299 298 298 297 297 297 297 297 297 296 296 296 296 296 297 297 296 296 296 296 296 295 295 293 293 292 291 291 291 290 288 287 288 286 286 286 286 286 285 285 285 285 284 283 283 283 282 282 283 282
283 282 287 283 281 281 283 278 271 271 271 274 277 277 278 281 283 287 287 288 291 292 292 292 293 294 295 294 294 295 296 296 296 296 296 297 296 297 296 296 297 298 298 298 299 299 299 298 299 299 298 297 297 297 296 296 296 297 297 296 296 295 296 295 295 295 294 295 294 293 292 291 289 289 289 288 288 287 287 286 286 285 285 285 285 285 284 284 285 283 283 283 282 282 281 281 282
283 285 284 284 281 279 278 279 278 278 271 272 272 277 277 285 286 288 289 289 291 292 292 293 294 295 295 293 295 295 295 295 296 296 296 296 296 296 296 296 296 297 297 297 298 297 298 298 298 298 298 297 297 297 296 296 295 296 296 294 295 295 294 295 294 294 294 293 293 292 290 289 289 288 287 287 287 286 286 285 285 285 285 284 284 284 284 284 284 282 282 282 282 281 281 280 280
277 280 281 279 282 284 282 280 279 277 274 275 273 271 278 287 290 289 289 291 292 292 293 294 295 295 293 294 295 295 295 295 295 295 295 296 296 296 296 295 296 296 296 296 296 297 297 297 297 297 297 297 296 296 295 295 294 295 294 294 294 294 294 294 293 293 293 292 291 291 288 288 286 286 286 286 286 286 285 285 285 285 284 284 283 283 283 283 283 281 281 280 281 280 279 279 279
279 280 278 280 279 277 273 274 280 279 276 273 274 272 281 289 292 291 290 292 292 294 293 292 295 293 293 294 294 295 295 295 295 295 295 296 295 296 295 295 295 294 295 295 296 296 295 296 297 296 296 296 296 296 295 294 293 293 292 292 292 292 292 291 291 291 291 289 288 288 286 286 286 285 286 286 285 285 285 285 284 284 283 283 282 282 282 282 282 280 280 281 281 279 278 278 278
Wind_Speed
7 8 5 4 3 5 7 2 1 2 3 6 4 2 3 3 4 6 5 7 3 3 4 1 4 5 4 2 2 3 4 2 2 1 1 2 2 5 5 4 4 3 2 3 1 2 5 5 6 4 4 6 5 6 6 7 7 8 7 8 8 8 9 10 10 10 11 11 12 12 12 13 13 13 14 14 14 15 15 15 15 15 16 16 16 16 16 16 16 16 16 17 17 17 17 17 18
7 3 4 5 4 0 2 0 2 3 4 8 6 5 3 2 4 3 4 6 5 3 1 3 2 2 1 3 2 3 4 2 1 2 2 4 4 4 5 5 4 4 2 1 3 4 3 4 5 4 5 5 6 6 6 6 7 6 7 7 7 8 8 9 9 10 10 11 11 11 12 12 12 13 13 13 14 15 14 14 15 15 15 15 15 15 15 15 15 16 16 16 16 17 17 17 17
5 6 5 5 4 3 1 1 3 3 6 7 3 3 3 2 5 5 8 7 7 4 2 2 1 1 2 5 5 1 1 3 4 4 2 7 7 4 6 4 4 4 3 1 0 3 4 4 5 3 4 4 5 5 5 5 6 6 6 6 7 7 8 8 9 9 10 10 10 10 11 11 11 12 12 13 13 13 13 14 14 14 14 14 15 15 15 15 15 15 15 16 16 16 16 17 17
4 5 5 3 2 3 2 1 3 4 7 4 4 3 2 5 5 7 6 5 3 1 1 3 0 1 2 1 3 1 5 3 4 4 3 6 3 8 6 6 7 4 4 3 2 2 5 6 4 2 2 3 4 4 4 5 5 6 6 7 7 7 8 8 9 9 9 10 10 10 10 11 11 11 12 12 13 13 13 13 14 14 14 14 14 14 15 15 15 15 15 15 16 16 16 16 17
3 4 5 2 1 0 2 3 3 3 9 3 5 3 3 6 7 7 6 4 3 0 1 2 1 0 0 1 1 1 2 5 4 2 4 4 6 7 7 6 4 4 4 4 3 2 5 9 6 1 1 2 3 3 4 5 5 6 6 6 7 7 7 8 8 8 9 9 9 9 10 10 10 11 11 11 12 13 13 13 13 13 13 14 14 14 14 15 15 15 15 15 16 16 16 16 17
7 7 3 2 2 0 0 4 6 7 1 1 6 4 6 6 8 8 6 4 4 1 0 1 2 1 3 2 1 0 4 3 5 3 6 5 7 9 7 5 5 5 4 4 3 2 6 9 6 2 1 2 2 3 4 5 5 5 6 6 7 7 7 7 8 8 8 9 9 9 9 10 10 10 10 11 10 11 12 12 12 13 13 13 13 14 14 14 15 15 15 15 15 15 15 16 16
2 2 1 1 0 0 4 7 6 3 5 2 5 6 7 6 7 8 7 5 3 2 3 2 1 1 1 1 1 2 2 4 4 3 1 7 7 7 7 5 5 4 5 4 5 3 8 9 7 4 2 1 2 2 3 4 5 5 5 5 6 6 7 7 8 8 8 8 9 9 9 9 9 9 10 10 10 10 11 12 11 11 12 12 12 13 13 13 13 13 14 14 14 15 15 15 15
1 0 0 1 2 4 7 6 6 2 3 6 4 6 7 8 6 5 7 6 5 2 5 4 2 2 1 1 2 3 4 0 5 7 7 5 6 6 6 6 4 4 4 4 4 4 8 10 8 6 4 2 1 2 2 3 4 4 4 5 5 6 7 7 8 8 8 8 8 8 9 9 9 9 9 9 10 10 10 11 11 11 11 11 11 12 12 12 12 13 13 13 13 14 14 14 14
2 1 1 1 4 3 5 6 5 5 3 5 5 6 7 7 4 5 5 1 7 0 7 4 2 2 1 3 1 5 4 5 5 7 6 6 7 6 5 6 5 5 5 4 5 6 5 10 9 7 5 3 2 2 2 2 3 3 4 4 5 5 6 7 7 7 8 8 8 8 8 9 8 9 9 9 9 9 9 9 10 10 11 11 11 11 12 12 12 12 12 13 13 13 13 13 13
3 3 1 2 3 10 6 4 4 2 3 3 3 5 5 3 3 1 6 3 3 3 2 2 2 3 0 2 2 3 4 7 7 4 5 6 7 6 6 6 5 5 6 5 4 5 5 10 11 9 7 5 4 2 2 1 2 2 3 4 4 5 5 6 6 6 7 7 7 7 8 8 8 8 8 8 8 9 9 8 9 10 10 10 10 10 11 11 11 12 12 12 12 13 13 13 13
2 3 0 3 4 5 5 5 5 3 3 4 3 4 4 2 4 0 1 4 3 2 4 3 1 4 3 2 2 1 9 8 8 8 7 6 5 7 5 6 5 4 4 5 5 4 7 6 11 11 9 7 6 5 4 2 1 2 2 2 3 3 4 5 5 6 6 6 6 6 7 7 7 7 7 7 8 8 8 8 8 9 9 9 9 10 10 10 10 10 11 11 12 12 12 12 12
2 0 1 3 3 4 4 6 4 4 3 3 3 4 2 2 1 2 1 1 3 1 3 6 0 1 3 3 2 2 9 8 7 6 8 6 5 6 5 4 5 4 4 4 5 4 5 7 6 9 11 10 8 7 6 5 4 3 2 2 2 2 3 3 4 4 4 4 5 5 5 6 6 6 6 7 7 7 7 8 8 8 8 8 9 9 9 9 10 10 10 11 11 11 11 11 11
2 3 1 5 3 6 7 5 4 4 3 3 5 3 2 4 3 3 5 0 5 3 3 8 1 0 2 2 2 5 7 8 7 6 9 6 5 5 4 4 6 5 5 4 4 5 5 5 7 7 8 12 10 9 8 7 6 5 4 4 3 2 2 2 2 2 2 3 3 3 4 4 4 5 5 5 6 6 7 7 7 8 8 8 8 8 8 9 9 9 10 10 10 11 11 11 10
1 1 1 4 5 6 4 4 4 3 2 3 4 5 4 3 3 1 0 3 3 3 2 4 1 0 3 2 2 5 7 7 7 6 6 6 6 5 5 4 4 5 5 5 4 3 4 5 5 7 7 6 5 7 9 10 9 8 6 5 5 4 4 3 3 2 1 1 1 2 2 3 3 3 4 3 5 5 6 7 7 8 8 8 8 8 9 9 9 9 9 10 10 10 10 10 9
1 1 2 3 4 3 4 3 7 3 2 4 4 6 3 3 0 1 2 3 2 4 2 2 0 1 0 1 1 7 7 11 7 5 6 6 5 5 5 4 4 4 3 4 5 5 5 5 5 4 8 7 7 6 5 7 12 9 9 7 7 6 6 6 5 4 3 2 1 2 3 3 3 3 2 2 3 4 4 6 7 8 8 8 8 9 9 9 9 9 9 9 10 10 10 9 9
2 2 2 2 4 4 2 3 5 5 2 5 6 5 4 3 2 2 2 3 1 3 3 2 2 2 1 2 3 5 11 10 7 5 5 5 5 5 5 4 4 4 4 4 4 5 5 5 5 6 6 6 5 6 6 7 9 12 10 9 9 8 8 7 7 6 5 4 4 4 5 3 5 4 4 1 2 3 3 4 6 7 7 8 8 8 8 8 9 9 9 10 10 11 11 11 10
2 0 2 3 4 3 1 2 2 3 5 5 7 6 5 4 4 2 2 0 2 3 4 2 4 1 3 1 4 4 6 7 7 6 4 4 4 4 4 5 4 4 4 6 6 5 5 6 5 5 5 6 5 5 4 4 7 11 9 10 10 10 9 8 8 8 7 6 5 6 6 3 4 3 3 0 3 1 3 3 5 7 8 7 8 8 8 7 8 8 9 10 10 10 10 10 10
2 1 4 3 3 4 3 2 2 2 7 7 8 6 5 4 3 3 3 3 4 4 3 3 4 4 4 1 6 5 2 5 6 6 5 5 4 4 5 5 5 7 6 6 7 7 6 6 6 5 5 6 6 5 4 3 4 8 6 6 5 7 8 8 6 4 6 4 8 5 4 6 4 2 3 3 1 1 2 5 4 5 6 7 7 8 8 8 8 8 9 9 10 9 9 4 5
3 3 3 2 3 0 3 2 4 2 4 8 6 5 4 1 8 3 2 4 6 5 6 5 5 6 6 4 6 6 5 4 6 7 8 8 8 8 8 6 7 6 6 6 6 8 7 6 7 7 6 6 6 5 4 4 5 6 6 6 6 8 7 6 5 6 5 5 5 5 5 4 3 1 2 3 2 5 4 7 7 7 6 7 7 8 9 8 8 9 9 8 10 8 4 4 4
2 0 4 2 2 4 4 4 3 4 11 9 7 5 4 3 3 4 3 3 5 9 5 6 9 9 10 9 8 8 8 7 7 8 9 9 9 9 7 8 8 7 7 7 7 7 9 7 7 7 7 6 7 6 5 5 5 5 7 7 7 7 6 6 6 5 5 5 4 4 6 3 2 2 5 6 5 3 5 9 10 9 8 8 9 6 8 7 8 8 8 8 6 4 3 4 4
4 4 3 3 4 3 3 3 4 3 6 7 5 4 3 3 1 3 2 3 8 8 7 8 11 11 10 12 11 10 9 9 9 8 9 9 9 8 8 8 7 8 8 7 7 7 9 9 6 7 7 7 6 7 6 7 7 6 6 6 7 7 6 6 7 5 5 5 5 5 4 2 3 4 3 5 4 5 4 3 5 5 5 4 6 4 5 3 4 4 3 4 3 4 4 4 4
3 4 4 3 3 5 2 3 6 4 5 5 4 4 3 2 1 4 4 6 5 3 5 9 8 8 11 11 13 11 11 10 11 11 12 11 11 9 7 6 6 5 8 7 7 6 8 8 7 6 6 6 7 6 6 6 6 6 5 5 6 5 6 7 7 7 6 5 5 5 4 3 4 4 4 4 4 3 3 4 3 4 1 3 3 3 3 3 4 4 3 3 4 4 4 4 4
5 2 3 4 3 6 3 2 3 4 4 4 4 1 2 1 3 5 7 13 7 3 6 2 2 3 2 7 11 12 12 12 12 12 12 11 10 10 9 7 6 6 3 5 4 5 6 6 7 6 7 7 7 6 6 6 6 6 5 5 6 5 5 5 5 6 7 6 5 5 5 5 6 6 5 4 4 4 4 3 2 1 2 3 2 2 3 3 3 4 3 3 4 4 4 4 4
5 3 2 6 6 6 5 3 4 5 3 2 3 1 2 2 5 4 11 15 12 12 7 1 1 1 2 2 7 14 13 13 13 12 11 12 10 10 8 8 6 5 5 5 4 4 6 8 9 7 7 7 6 7 6 6 5 5 6 5 5 6 7 6 7 6 6 7 6 6 5 6 5 5 5 4 4 4 5 3 2 2 4 3 2 1 3 2 3 4 4 4 4 4 4 4 5
5 4 3 3 4 3 4 2 2 2 2 2 2 1 5 4 5 5 12 12 10 12 9 8 5 3 1 2 3 7 11 10 10 10 8 8 9 9 9 8 6 5 6 5 6 6 5 6 6 8 6 6 6 7 6 6 6 6 6 5 6 5 5 5 6 6 6 6 6 6 5 6 5 4 4 4 4 4 3 2 3 3 2 3 2 2 2 2 3 4 4 4 4 5 5 5 5
3 4 4 3 3 4 3 2 1 1 1 1 2 5 5 7 5 9 20 15 11 8 8 8 5 5 6 6 5 4 5 9 9 9 10 8 7 9 10 9 8 7 6 5 6 6 5 5 6 7 8 8 7 7 7 7 7 6 6 6 6 5 6 7 5 6 6 6 7 7 6 6 6 6 5 6 4 4 3 3 3 4 5 3 2 2 2 1 3 4 4 3 4 4 5 6 6
5 5 5 5 4 3 0 1 2 1 2 1 2 4 4 2 3 9 5 12 10 9 10 8 8 8 7 6 7 6 7 7 8 7 6 6 8 9 8 8 9 8 6 6 6 6 6 5 6 7 7 7 7 7 6 7 6 6 6 6 6 6 6 7 6 6 5 6 7 7 6 6 6 5 5 5 4 4 4 4 4 4 3 3 3 2 1 0 2 4 4 4 4 5 6 7 6
7 8 6 4 3 2 1 1 1 1 2 4 4 7 6 2 2 13 9 3 4 7 9 9 8 7 7 8 7 7 8 7 7 7 10 10 9 8 8 8 8 7 7 7 6 6 6 7 6 6 7 6 7 6 6 6 6 6 5 7 7 6 5 6 7 6 6 7 5 6 7 7 5 5 5 4 4 4 4 5 4 2 3 3 2 2 0 1 3 4 5 5 4 4 6 6 6
7 5 1 2 3 3 3 2 3 1 0 2 3 7 6 6 8 20 13 4 4 4 5 6 7 7 6 6 7 7 8 7 7 8 10 9 7 8 10 8 7 7 6 7 7 6 7 6 7 6 6 6 7 6 7 6 6 5 6 6 7 6 7 6 7 7 7 6 5 5 7 6 6 6 5 5 4 5 4 4 3 3 3 4 1 0 1 3 4 5 4 3 5 4 4 6 5
2 3 3 1 2 1 4 1 2 1 0 1 1 5 2 7 19 16 4 8 5 4 6 6 7 7 7 7 7 8 8 8 9 10 8 8 8 8 9 7 8 7 7 6 6 8 6 4 6 6 7 7 8 6 6 6 6 6 6 7 5 6 7 7 7 6 7 7 6 6 6 6 5 6 5 5 5 5 4 4 4 4 4 3 1 1 3 4 4 3 4 3 4 5 6 5 6
1 1 2 1 1 0 3 1 3 2 1 2 0 2 10 7 7 13 5 8 8 7 6 6 7 7 7 7 7 8 9 10 11 9 9 9 8 7 8 7 8 8 7 7 9 7 7 6 5 5 6 6 7 7 6 6 6 7 7 6 7 6 7 7 7 7 6 7 6 7 6 6 6 5 5 6 6 6 6 5 5 6 5 3 2 2 3 2 3 5 3 3 3 4 4 6 6
1 1 0 1 1 0 2 2 2 2 0 2 1 3 9 9 6 4 6 6 6 6 6 7 7 7 8 7 8 7 8 8 9 9 10 10 9 7 8 8 7 7 8 6 7 7 7 6 6 5 6 6 7 8 6 6 6 6 6 6 6 5 7 7 7 7 7 6 6 6 6 6 6 6 5 5 6 6 6 6 6 6 4 4 2 3 2 3 4 3 2 3 4 4 5 6 6
1 1 1 1 2 1 0 2 1 1 2 2 3 6 10 9 1 4 4 6 7 7 6 7 9 9 9 8 8 7 6 7 8 10 10 10 9 8 7 7 7 7 6 7 6 6 6 7 8 7 8 8 7 8 6 5 5 5 5 5 5 5 6 7 6 5 6 7 7 7 6 7 6 6 6 5 5 5 6 5 5 3 4 3 2 3 4 4 4 1 2 3 3 4 4 5 5
0 1 1 1 1 2 2 1 1 0 1 2 5 5 12 13 8 5 4 6 7 7 8 8 7 6 7 6 7 8 8 7 10 10 12 10 9 10 8 7 7 6 6 7 7 8 8 7 8 8 7 8 7 8 7 7 6 5 6 6 5 6 5 6 5 5 7 7 6 7 5 7 6 6 6 5 5 5 4 5 4 4 5 4 3 3 4 4 2 1 2 3 3 3 4 4 5
3 5 4 3 4 3 3 1 1 1 4 4 4 8 19 17 14 12 14 10 10 11 9 9 7 6 7 6 6 7 7 9 10 8 10 10 9 9 8 7 7 7 5 7 7 7 7 7 7 7 7 7 7 7 6 6 5 4 4 4 4 5 5 6 6 6 7 7 7 6 6 7 7 6 6 5 6 5 5 4 4 4 5 5 4 5 4 4 3 3 3 3 4 4 4 4 5
4 5 3 4 4 4 1 1 1 1 2 5 6 9 14 14 12 10 7 5 12 11 8 6 6 6 6 6 6 7 8 9 7 7 9 9 8 8 8 7 7 6 6 6 6 6 6 6 6 6 7 7 5 5 6 6 6 6 6 4 4 6 6 6 6 7 6 7 6 6 6 6 5 6 6 6 6 5 5 5 5 4 5 4 4 4 4 5 5 4 4 4 4 4 5 3 1
4 4 3 5 4 3 2 3 0 2 2 6 8 10 12 14 15 14 10 6 8 7 7 7 5 5 5 6 6 6 6 6 5 6 7 9 9 8 7 6 6 6 5 6 6 6 6 7 6 7 7 7 7 7 6 7 6 4 4 7 7 7 7 6 7 7 7 7 5 6 6 7 5 6 6 6 6 6 5 5 6 5 5 5 4 5 5 3 3 2 1 1 3 3 2 1 3
3 3 4 6 4 3 3 1 1 1 2 5 7 9 14 15 14 11 7 2 5 8 7 7 7 6 6 6 6 6 5 1 3 3 3 5 6 7 6 6 6 7 6 6 7 8 7 6 7 7 6 7 8 8 8 7 6 7 6 7 6 7 7 7 7 7 7 5 5 5 5 5 5 6 6 5 6 6 5 5 5 6 6 6 5 4 3 3 2 1 1 2 3 5 2 1 3
2 2 4 4 3 5 0 2 2 2 1 8 5 11 16 15 12 9 2 1 0 1 3 3 4 5 6 5 6 6 5 5 5 5 4 4 5 6 6 5 6 7 7 8 7 6 7 7 7 7 7 8 7 7 8 7 6 6 6 4 8 5 4 6 6 5 6 6 5 5 5 5 5 5 5 6 6 6 6 6 6 6 6 6 5 5 4 4 4 4 4 3 3 1 3 1 3
1 4 4 2 2 5 6 0 1 1 2 5 6 11 14 11 8 4 1 1 1 0 1 2 1 3 3 4 5 6 6 6 7 7 7 6 6 6 6 6 6 5 6 6 7 8 7 7 6 7 8 7 8 8 7 6 6 5 4 2 3 3 2 3 4 3 4 4 5 5 4 5 5 6 5 6 5 6 6 7 6 6 7 6 6 6 5 5 5 5 4 4 3 1 1 0 1
2 2 0 2 3 2 1 6 10 14 2 2 8 8 5 3 4 1 3 1 1 1 1 1 4 3 3 4 3 1 3 6 6 6 6 7 8 9 9 7 6 7 7 8 8 9 7 9 8 9 8 8 7 7 7 5 4 4 3 3 2 1 2 2 1 2 3 4 4 5 7 5 6 6 6 6 6 6 5 5 5 6 6 5 5 5 5 7 6 5 6 4 4 3 1 0 0
0 1 1 0 2 4 5 7 11 5 2 2 5 6 1 3 8 1 1 0 1 2 2 3 4 4 3 4 6 4 5 2 2 5 7 9 9 6 6 7 8 7 8 8 7 8 6 7 7 6 6 6 6 6 7 6 6 7 5 5 4 3 5 4 8 9 7 7 8 5 6 7 6 6 6 6 6 5 6 6 5 5 6 6 6 5 4 4 5 5 5 4 4 2 2 0 0
1 1 1 2 3 3 4 5 6 4 3 5 4 3 6 5 5 3 1 1 3 1 1 0 3 4 4 4 5 5 5 5 5 3 1 5 6 7 7 8 8 8 7 6 5 6 6 5 6 6 6 5 5 5 6 6 6 6 7 8 7 8 8 7 6 7 8 7 7 8 7 7 6 6 5 6 5 6 6 5 5 4 5 6 5 4 5 5 5 4 4 4 4 4 2 1 3
2 1 1 2 3 3 4 4 3 5 2 3 2 2 1 8 10 2 0 2 3 5 7 3 1 2 2 3 4 4 4 5 5 5 5 2 5 7 8 7 7 8 5 6 5 5 6 5 5 5 5 5 5 5 7 7 7 7 7 7 7 7 8 8 8 8 7 7 8 7 7 7 6 6 6 6 6 5 6 6 5 5 5 5 6 6 5 4 5 3 4 4 2 4 4 4 3
1 1 1 1 1 3 3 3 5 4 2 1 4 3 1 2 9 4 1 2 7 5 5 5 5 5 6 7 7 3 0 1 4 4 5 5 5 5 5 7 6 6 7 7 7 5 5 5 5 5 5 5 5 6 7 7 7 7 8 7 7 7 5 4 5 5 6 6 6 6 6 6 6 5 6 6 6 6 5 6 6 6 5 5 5 6 4 5 6 5 4 3 3 3 4 3 1
0 2 2 2 2 1 2 1 4 3 1 1 3 4 1 7 6 8 1 4 4 3 4 5 6 6 5 5 6 7 6 4 4 3 1 2 5 5 5 5 6 7 6 6 6 6 6 6 7 7 7 6 6 7 7 7 7 6 7 7 8 7 5 3 5 6 5 5 6 6 6 7 7 6 5 6 5 6 6 6 6 6 6 5 5 5 4 5 5 5 4 4 4 4 3 3 3
2 2 1 1 1 1 1 2 2 2 1 1 1 3 3 3 7 4 4 3 2 4 4 4 6 7 6 5 5 4 4 4 3 0 0 1 3 2 1 1 2 3 4 6 6 7 6 7 7 8 8 7 7 9 8 8 8 7 7 7 7 7 6 6 6 5 5 5 7 7 7 7 7 7 6 5 6 5 6 6 7 6 5 5 6 5 5 5 5 5 5 4 4 4 3 3 2
2 1 2 2 1 1 0 2 1 1 1 1 1 1 1 1 5 6 4 5 4 4 4 6 7 7 6 5 5 4 3 3 3 2 1 1 1 1 1 3 3 1 2 4 4 5 6 6 6 7 7 8 8 8 8 8 8 8 7 6 8 8 7 7 9 9 8 8 8 8 7 6 6 7 6 6 6 6 7 6 6 6 6 5 6 4 5 5 5 5 4 4 4 4 3 4 3
0 1 1 3 2 2 2 0 3 1 2 0 0 3 2 5 10 8 11 3 4 4 4 4 4 4 4 4 4 4 4 3 2 2 2 2 3 4 5 6 5 6 6 5 5 5 4 5 6 7 8 8 8 8 8 8 7 8 9 8 8 8 8 8 8 8 7 8 8 7 8 8 7 7 8 8 7 8 7 7 7 7 6 5 5 5 5 6 6 6 6 4 5 5 4 4 4
0 1 1 1 2 2 1 3 1 1 1 2 3 1 1 6 7 8 4 1 2 4 5 4 4 2 1 2 3 4 4 2 2 2 2 3 4 4 5 5 6 6 7 8 7 7 6 5 6 7 8 5 5 6 8 8 9 9 8 9 8 7 8 8 8 8 8 8 8 8 8 8 8 9 8 9 8 8 6 6 6 5 5 5 5 5 6 6 6 7 6 6 5 5 4 4 4
0 1 1 2 3 1 1 1 1 2 4 2 1 1 3 2 3 1 1 1 4 4 4 4 4 2 0 2 1 3 4 4 4 4 3 4 4 4 4 5 5 5 6 6 6 7 7 8 8 8 7 7 7 8 7 9 9 8 8 8 8 7 8 8 8 7 7 8 7 8 8 7 8 8 8 7 7 8 7 6 6 6 5 6 5 5 6 6 6 6 6 6 5 5 5 6 4
0 1 2 2 2 1 3 1 0 2 3 6 2 3 2 3 6 7 1 3 4 4 2 5 4 2 0 1 4 6 6 5 5 5 5 4 4 4 4 5 5 5 5 5 5 5 6 8 8 9 10 9 9 9 9 9 8 7 7 8 8 8 7 7 7 6 7 7 7 8 8 8 7 7 7 7 7 8 7 6 6 6 5 6 6 6 6 7 6 6 6 6 6 4 6 6 5
1 0 0 1 0 1 2 1 0 1 2 6 3 6 4 4 5 1 3 4 3 2 5 3 3 2 1 1 3 5 5 5 5 5 5 6 5 5 4 5 5 5 5 5 6 6 7 7 7 8 8 7 9 10 10 8 8 7 8 8 7 7 8 9 9 8 7 6 6 7 7 7 6 7 7 6 7 6 6 6 6 6 6 6 6 6 7 6 6 6 7 7 7 6 7 7 5
0 0 2 0 1 1 1 0 0 1 2 3 0 5 6 5 3 1 1 4 4 5 3 4 1 1 5 3 5 5 5 5 5 5 5 5 5 6 6 5 5 5 5 5 6 5 6 7 7 7 7 8 7 7 8 8 9 9 8 9 9 9 9 8 7 7 6 6 5 5 5 6 6 6 6 6 7 7 6 6 6 6 6 6 7 7 7 7 7 6 7 7 7 6 5 5 5
1 1 1 0 1 0 0 2 1 1 1 3 3 4 5 4 6 0 1 1 2 4 4 3 3 3 3 4 5 5 5 5 6 6 6 6 6 6 6 6 6 5 5 5 5 5 5 5 5 7 9 8 8 7 6 5 6 6 6 7 8 7 6 6 5 5 5 6 6 6 5 5 5 5 7 6 7 7 7 6 6 7 7 7 7 7 7 7 8 7 7 8 7 7 6 5 5
2 0 1 0 0 0 2 2 1 2 3 1 4 5 6 4 3 1 3 4 3 2 3 2 2 1 3 5 5 5 5 5 5 5 5 6 6 6 6 6 6 6 5 5 5 4 5 5 5 6 6 5 6 7 7 8 8 7 7 5 6 6 5 5 5 5 6 6 6 6 5 5 6 6 6 7 7 7 8 8 7 8 8 7 7 7 7 7 8 6 7 7 6 6 5 5 5
1 1 0 1 0 1 1 1 2 2 1 1 1 4 8 4 1 3 3 4 2 2 1 1 1 1 4 4 5 5 5 5 5 5 5 6 6 6 6 5 5 5 5 5 5 5 5 5 5 5 6 6 6 6 5 6 4 6 5 7 6 5 6 5 5 5 6 5 5 5 5 5 5 6 7 7 8 8 9 9 9 9 9 8 8 8 7 7 7 5 6 5 5 5 5 4 4
4 7 5 8 6 2 1 5 1 0 2 3 1 6 9 6 1 3 4 2 2 1 1 3 2 2 4 4 4 4 5 5 5 5 5 5 5 6 5 5 5 4 5 5 5 4 5 5 5 5 5 5 6 6 5 5 5 4 5 5 4 3 3 3 5 5 5 5 5 5 5 5 6 6 8 9 9 9 9 9 9 8 8 8 8 8 7 7 7 5 5 4 6 6 5 4 4
Wind_Direction
285 256 251 274 279 279 308 296 104 61 80 72 113 32 93 83 109 100 110 183 118 46 16 75 13 11 15 30 298 39 58 343 157 195 220 173 228 108 109 116 118 126 179 153 116 112 105 78 60 20 358 18 26 31 22 26 36 31 25 20 22 15 13 17 18 17 17 19 17 18 19 20 13 22 14 18 21 23 22 21 22 22 21 21 21 23 22 22 21 20 20 20 20 19 21 21 20
260 282 297 270 239 296 255 32 83 89 90 82 68 92 116 145 131 89 87 60 51 74 72 20 36 16 333 266 310 129 69 50 16 76 113 133 163 148 135 149 152 148 178 115 175 129 118 87 72 27 7 10 29 28 27 30 41 38 26 25 22 22 12 20 19 16 21 18 18 15 17 22 11 13 18 16 20 21 20 21 22 22 21 22 21 21 22 23 21 20 19 19 19 19 19 21 19
321 316 296 277 248 183 354 341 113 125 99 78 52 79 187 159 102 62 74 84 83 102 52 106 171 254 271 199 215 283 158 140 108 116 112 159 159 175 160 163 143 167 153 133 212 148 116 102 81 36 9 12 41 34 35 39 44 41 37 30 25 23 20 21 17 21 19 19 21 14 18 19 15 11 17 11 19 21 20 20 20 21 20 21 20 19 20 20 19 18 17 16 17 17 17 19 18
304 278 266 323 285 101 237 175 63 103 91 102 116 161 207 105 95 103 106 108 95 111 94 168 220 64 308 232 45 83 135 148 122 140 130 180 203 155 157 164 148 186 145 139 223 161 111 108 109 62 25 21 39 42 43 39 43 41 41 36 33 30 23 24 20 27 18 22 19 18 19 18 16 14 14 14 12 16 18 18 18 18 18 18 18 18 17 17 16 17 16 15 14 16 16 15 16
285 263 236 251 301 256 11 50 80 76 97 175 146 163 115 117 125 126 112 102 131 294 199 77 261 177 332 297 292 255 150 107 146 206 142 137 115 147 152 150 170 177 164 171 200 158 110 125 116 141 31 31 50 50 48 49 43 45 41 41 37 33 30 26 24 26 21 22 20 20 19 18 17 15 14 14 11 9 14 17 15 16 16 17 15 15 15 14 13 14 14 14 13 14 14 14 15
254 256 213 205 246 165 344 65 61 66 267 32 123 157 116 127 134 130 130 152 126 202 281 298 312 134 185 161 356 51 161 181 161 175 143 161 157 142 157 154 177 175 182 172 186 152 128 133 128 160 215 60 64 61 60 52 49 46 45 41 38 35 33 30 30 25 24 20 20 18 17 18 17 15 14 13 13 9 6 14 13 13 13 13 14 12 13 12 10 11 12 11 11 12 13 14 14
297 304 259 321 358 71 80 86 82 82 356 79 112 132 134 130 125 135 140 138 169 198 147 240 208 266 242 122 43 113 117 115 155 162 105 152 131 151 149 174 179 187 175 168 149 170 135 134 148 170 175 122 83 73 63 58 56 50 50 46 43 40 35 35 30 28 25 21 20 18 18 16 16 16 13 12 12 11 6 8 15 10 11 10 10 12 10 10 9 8 10 9 9 9 10 11 12
249 30 226 319 69 60 75 83 81 33 22 72 107 120 131 131 141 149 159 169 152 200 179 214 246 286 310 336 197 149 134 205 90 102 114 142 149 154 162 173 179 192 171 170 171 128 135 139 154 169 174 175 104 78 60 67 62 59 51 47 45 43 37 35 31 30 27 22 19 19 17 16 14 14 14 11 11 9 11 4 9 11 9 8 8 10 8 8 7 7 7 7 7 7 8 8 9
235 227 299 73 64 64 67 56 70 49 78 57 72 105 118 131 160 151 152 6 124 277 163 189 189 234 102 188 111 172 168 138 146 131 151 154 163 170 173 179 182 180 180 176 177 140 155 157 160 171 182 186 187 92 85 79 75 68 57 54 56 46 45 37 36 32 27 25 20 18 18 16 15 14 13 11 8 10 7 8 4 10 7 7 8 7 7 5 6 4 5 5 4 5 5 4 5
260 177 267 107 103 86 96 111 82 106 96 103 107 117 126 140 147 260 144 152 147 157 136 82 128 268 54 244 95 186 183 154 139 142 175 162 165 183 174 196 191 186 180 173 178 163 147 161 165 173 181 197 200 182 153 125 91 82 68 66 55 57 49 46 40 34 30 25 20 17 16 15 15 14 12 11 8 8 7 8 5 6 8 7 7 6 4 4 3 3 2 1 2 2 1 1 1
248 183 286 85 77 102 83 93 90 90 98 109 122 123 127 145 144 242 255 114 107 164 108 114 253 239 282 262 88 28 130 154 153 175 185 172 171 181 191 190 200 209 186 171 172 173 138 162 171 172 185 189 193 201 204 180 159 115 110 87 66 71 58 55 45 38 31 24 19 15 13 14 12 13 12 11 7 7 6 5 3 3 7 6 5 4 3 1 360 359 358 358 357 358 356 357 357
308 275 356 104 74 97 96 103 118 100 103 158 128 152 139 166 172 162 188 161 172 145 170 174 158 38 213 253 166 175 149 168 179 169 178 169 186 188 192 188 196 200 223 180 171 174 176 158 165 181 183 189 198 204 201 203 186 167 159 135 122 89 82 72 55 45 37 25 17 11 11 9 9 10 10 12 6 6 3 3 357 359 3 3 3 1 359 358 357 355 355 354 354 352 353 352 354
287 26 334 66 74 78 110 101 106 125 134 211 152 167 153 157 191 194 176 280 160 171 193 186 96 61 227 217 76 145 175 181 179 166 168 174 179 192 210 196 189 203 203 215 177 184 187 160 172 174 183 191 197 203 211 209 197 191 187 172 159 147 142 111 89 67 44 32 10 3 359 3 2 4 6 8 7 3 2 356 356 349 356 358 356 355 355 355 356 353 352 353 350 350 351 351 351
345 156 2 99 90 105 98 105 128 142 190 131 122 128 172 174 214 10 226 183 171 208 14 135 129 90 279 59 190 182 201 171 175 164 162 173 169 186 198 219 206 199 205 188 200 216 193 190 191 165 176 179 191 207 212 209 208 200 191 190 183 176 171 163 158 158 123 41 333 328 332 334 335 341 355 351 1 359 359 352 348 342 348 351 349 349 351 353 352 352 352 350 350 350 350 350 347
355 270 58 96 80 79 154 140 185 161 110 129 123 144 172 225 85 111 241 191 131 77 158 77 182 70 285 209 221 196 175 159 166 158 159 172 177 172 197 210 230 222 214 206 197 194 216 201 203 183 156 177 192 191 197 210 203 197 194 195 195 191 182 185 189 186 178 209 252 274 282 264 260 253 290 290 346 344 347 350 336 336 340 345 345 345 347 347 349 350 349 349 348 349 350 344 338
330 349 127 99 107 110 224 135 217 114 170 142 160 145 183 159 201 177 241 347 113 168 129 212 162 223 325 335 39 27 122 144 150 146 155 172 184 178 184 214 229 222 215 226 227 208 202 209 195 188 177 179 189 185 196 175 196 192 194 197 198 196 197 194 194 196 202 199 225 242 256 257 243 226 241 263 335 292 332 324 322 326 331 336 340 341 340 342 343 344 345 346 346 348 344 337 328
289 162 72 80 107 112 220 172 207 190 126 124 151 162 183 182 164 241 64 76 272 193 179 197 187 201 261 17 96 81 117 138 134 147 143 179 194 197 201 209 222 233 218 209 212 220 204 210 210 181 181 181 186 197 197 184 177 189 193 197 201 202 201 201 200 204 201 214 216 231 239 247 238 190 203 194 307 252 282 285 313 317 318 325 330 331 329 329 333 335 337 340 337 336 333 328 323
258 357 126 85 88 92 359 22 95 112 132 144 167 176 202 151 154 192 121 226 248 278 250 218 201 209 222 176 133 103 94 140 149 150 171 195 196 215 217 219 203 221 216 214 206 206 209 199 209 196 183 187 184 185 194 191 166 177 186 197 202 202 203 201 202 199 202 203 211 226 233 224 214 187 159 151 299 304 263 237 279 297 303 308 316 323 317 314 318 323 325 326 327 324 329 323 293
44 309 69 83 10 39 354 57 35 149 138 146 159 187 219 132 161 152 202 202 198 234 234 222 225 219 214 190 134 145 153 166 172 180 185 194 198 211 212 208 213 215 218 208 209 198 204 198 191 198 194 188 181 188 186 194 180 181 198 197 187 192 194 192 196 206 195 202 186 210 226 218 146 230 171 157 196 249 256 249 254 264 275 282 290 304 307 302 307 318 322 325 326 331 327 300 307
91 113 77 67 70 80 40 32 35 68 125 147 147 184 231 120 197 110 226 256 203 213 217 204 219 220 207 202 169 168 167 180 191 196 203 203 206 211 214 208 207 210 212 202 201 196 192 198 190 190 191 190 179 186 188 192 202 198 195 188 186 180 184 183 200 201 195 199 187 206 237 180 153 231 177 183 208 240 249 246 244 248 259 269 269 279 294 314 322 321 323 329 324 310 305 308 310
353 37 38 144 173 131 26 34 23 39 136 133 145 138 238 141 207 158 200 231 249 247 218 204 209 214 209 198 191 174 179 188 190 204 214 214 217 216 220 218 206 198 204 196 192 193 184 187 191 188 182 186 183 186 188 193 198 197 193 187 182 182 185 182 189 204 194 189 188 210 234 153 172 232 202 181 211 225 216 202 217 236 228 231 230 251 269 287 312 290 288 311 305 318 319 304 304
70 56 31 57 79 77 70 53 357 357 89 116 113 143 214 106 198 215 230 227 231 212 217 207 220 200 197 198 193 180 185 193 195 201 212 217 217 221 224 235 236 217 184 191 191 185 171 179 183 186 180 178 182 189 193 196 195 190 193 193 186 193 179 178 186 186 192 188 185 208 207 174 203 223 225 208 225 240 230 240 234 229 217 254 239 254 280 302 291 285 297 309 304 305 297 288 284
89 61 42 33 22 107 112 88 347 318 111 120 164 174 59 216 255 206 220 232 227 148 113 70 43 358 309 193 178 183 187 195 201 203 206 215 223 223 223 227 224 231 186 182 169 172 165 175 182 181 181 181 183 187 197 193 183 186 195 197 181 195 187 182 190 189 185 184 187 196 197 202 203 209 213 201 208 225 241 233 240 256 251 254 257 260 280 279 291 295 303 303 294 298 294 286 284
92 115 92 42 54 72 54 91 3 360 35 73 25 4 272 203 253 202 224 234 233 257 287 317 150 161 290 321 173 182 188 196 204 208 204 212 216 223 222 221 224 222 191 183 189 197 190 186 182 179 183 176 184 184 194 193 193 184 195 203 184 187 183 187 195 196 196 175 183 187 192 209 201 207 216 201 207 204 226 221 209 255 250 247 246 275 278 283 297 300 308 308 311 302 296 293 282
77 85 80 101 77 83 96 108 67 20 40 2 312 295 242 239 248 325 256 244 232 233 242 245 220 184 145 272 255 179 187 197 204 207 208 209 210 217 222 228 229 213 211 194 188 192 205 193 171 173 180 186 179 179 193 198 196 194 194 191 189 192 201 202 192 194 192 178 178 191 187 202 211 208 215 215 207 204 210 208 217 242 248 251 236 270 274 310 317 313 309 305 312 308 305 301 300
29 96 104 96 89 107 129 112 108 51 307 121 291 248 253 248 341 261 253 254 235 231 230 225 220 186 196 203 224 223 199 197 200 206 208 202 204 211 215 214 218 226 215 198 184 193 200 185 189 182 181 187 189 180 189 191 197 192 192 188 192 188 195 199 203 199 191 183 190 192 194 191 201 200 202 209 198 219 203 219 209 232 227 224 213 241 270 340 297 313 304 326 322 308 307 294 296
112 106 98 109 126 120 327 184 162 157 276 156 244 273 270 96 107 285 219 245 228 215 219 213 212 202 200 203 208 212 212 216 209 204 209 206 207 210 218 212 209 217 209 206 194 196 195 198 197 196 188 180 181 187 187 189 187 196 192 186 190 195 193 190 199 197 194 194 196 182 190 193 199 205 204 205 200 202 204 215 224 231 222 238 188 208 242 286 289 280 288 284 281 282 278 277 280
113 120 108 107 139 117 160 148 162 202 222 190 233 262 259 197 146 246 237 35 138 189 208 207 208 204 200 206 207 211 213 213 212 202 210 208 211 205 213 212 213 207 199 212 205 192 187 195 203 193 188 183 176 183 182 188 196 194 191 182 191 199 185 190 194 195 202 204 199 181 185 190 197 205 195 205 197 204 214 215 224 213 243 244 197 178 113 312 278 267 264 253 248 257 266 271 272
163 179 103 128 143 168 190 201 166 244 256 198 309 282 249 194 229 236 242 157 150 173 194 204 210 215 213 212 211 210 213 210 207 213 215 213 206 201 211 208 207 205 207 203 203 196 193 191 193 196 186 183 180 187 184 191 195 197 190 191 192 188 189 186 192 199 201 202 199 182 184 185 193 198 198 191 190 202 215 226 228 229 224 230 167 119 177 254 258 255 270 279 284 283 290 285 281
197 244 141 162 187 207 187 106 128 236 111 226 238 354 276 193 225 249 213 165 163 181 210 201 209 209 215 214 215 215 210 208 213 215 214 212 207 203 205 204 201 199 197 197 194 201 196 189 182 185 186 183 178 188 190 184 192 195 191 192 194 186 186 186 200 201 198 200 191 188 185 192 191 194 190 193 186 194 210 214 212 232 232 194 143 173 237 240 253 281 271 287 293 310 294 290 302
206 95 19 242 151 204 166 222 125 264 140 167 220 225 288 286 238 238 176 160 166 199 212 214 206 204 205 206 208 212 213 204 211 212 214 211 209 206 201 201 198 196 187 187 191 194 185 188 174 186 178 178 172 187 197 194 186 187 189 188 192 185 186 191 200 203 202 201 187 188 189 194 196 194 192 183 188 184 201 208 209 211 214 153 144 223 201 281 291 262 259 293 296 297 294 299 298
192 63 264 216 6 226 154 12 168 304 218 251 266 273 249 273 300 166 149 167 174 209 215 214 217 217 213 202 204 210 216 208 210 212 211 212 208 208 204 206 196 189 187 185 179 176 186 181 170 178 178 179 178 188 196 198 191 184 184 188 188 181 186 193 199 199 201 198 195 191 189 192 195 197 192 187 182 189 194 206 212 211 180 140 187 229 177 242 259 266 291 277 280 289 300 298 296
165 172 303 23 317 214 136 182 351 102 325 199 187 258 312 296 336 114 159 176 196 213 222 218 214 217 213 199 193 204 212 216 212 211 213 207 207 206 203 201 198 193 181 175 173 176 190 187 172 180 178 188 183 188 191 194 194 192 187 185 187 180 190 198 203 200 196 196 200 196 187 189 193 194 195 187 187 191 193 195 217 181 148 163 197 211 219 226 240 254 283 279 236 254 283 290 303
9 212 304 150 323 339 279 353 243 215 198 266 210 245 247 255 280 264 202 204 203 221 227 223 224 225 225 199 189 193 203 210 213 206 210 206 201 200 200 193 192 193 185 177 180 180 192 191 177 183 184 186 185 184 187 187 192 188 189 189 192 186 195 199 205 199 205 200 196 200 186 183 189 191 190 185 186 197 192 191 205 165 150 153 197 229 228 232 220 184 284 289 300 287 286 285 297
327 357 359 349 317 205 243 342 182 288 187 226 274 255 270 272 271 260 250 206 209 222 219 224 224 223 226 207 198 200 202 208 216 206 202 203 199 193 189 187 187 188 187 182 184 185 182 191 181 184 185 186 187 182 176 176 179 185 183 185 192 204 202 201 200 206 204 197 201 199 188 181 184 187 186 182 182 194 199 189 184 170 152 169 192 216 229 240 218 222 222 274 293 278 264 268 267
331 341 324 310 309 318 1 137 164 330 293 271 245 254 275 285 283 281 275 206 204 226 226 231 229 226 228 216 208 205 207 214 206 202 196 192 193 184 184 179 181 181 176 179 186 189 186 185 177 179 187 186 182 171 161 161 163 176 188 202 212 214 212 204 211 208 200 200 201 194 191 182 178 182 183 182 180 187 185 192 189 176 165 171 195 209 227 224 204 212 240 240 267 290 284 267 1
294 295 291 276 281 294 124 111 241 166 291 251 254 261 274 286 286 288 278 234 197 217 227 229 226 227 228 229 226 223 215 216 205 202 190 186 181 178 172 164 167 169 177 175 183 189 188 189 176 187 186 181 174 175 172 170 173 189 195 201 212 204 205 206 207 209 205 202 198 192 183 181 179 179 179 175 186 190 190 186 178 177 169 179 196 205 214 194 152 164 222 270 257 277 299 26 357
321 308 305 314 333 327 348 78 183 129 62 295 299 307 287 277 283 281 276 179 189 203 220 226 225 221 220 221 236 233 229 204 163 142 106 129 147 150 152 155 157 167 192 184 188 190 187 187 187 193 182 182 185 185 183 183 189 186 176 197 193 194 199 198 210 203 205 204 195 184 176 179 187 178 177 177 181 184 192 194 180 175 173 190 195 208 184 142 156 181 201 288 239 221 251 73 15
311 271 287 309 331 285 354 76 149 188 119 263 322 313 291 292 288 285 262 147 229 192 203 218 213 225 219 212 216 224 204 195 165 175 167 159 152 154 154 167 182 181 179 185 189 181 186 190 192 187 188 185 194 188 177 194 196 197 189 202 188 208 186 185 187 191 183 183 180 172 175 180 184 183 178 180 179 188 188 191 190 177 176 182 189 197 158 182 182 199 199 198 299 247 209 74 66
282 354 19 327 351 41 314 172 263 205 215 294 306 295 291 292 270 249 73 143 198 285 332 308 329 265 250 215 204 199 196 184 183 188 190 186 181 176 168 183 191 187 181 182 184 189 189 192 193 190 192 189 189 197 192 193 187 194 177 91 66 84 123 92 82 80 135 149 176 177 188 183 182 185 183 182 186 188 189 192 184 180 179 181 182 186 188 194 195 198 195 214 183 316 302 152 157
44 10 62 317 15 331 223 301 319 293 304 354 273 275 285 264 345 12 280 270 353 252 207 258 279 265 287 324 344 315 210 188 192 192 190 178 180 192 190 187 176 189 196 187 184 188 192 194 194 191 194 192 190 188 190 177 131 111 88 58 47 67 26 53 91 199 187 184 176 186 200 187 183 185 184 181 185 187 193 192 184 178 171 182 183 199 193 192 190 186 183 194 183 179 274 128 167
33 82 54 34 319 313 311 307 319 334 319 247 352 12 329 0 337 308 220 44 292 151 154 237 221 208 210 251 260 249 257 275 193 194 188 181 181 181 183 181 186 192 197 203 188 188 186 192 187 187 189 192 191 183 177 170 164 161 151 158 188 199 218 194 206 206 198 198 203 187 190 187 184 186 181 183 184 184 190 191 187 171 171 178 185 201 210 181 176 176 179 176 189 169 153 33 90
8 265 325 342 319 288 293 315 350 334 339 311 16 86 281 329 315 307 333 5 318 100 293 200 157 178 193 220 223 221 220 228 254 275 294 158 175 171 183 188 192 192 204 186 186 187 185 186 183 179 184 187 184 179 170 169 171 182 186 192 195 195 205 226 215 206 196 201 185 183 186 182 182 183 185 180 185 183 179 184 185 177 173 175 186 196 204 175 179 174 171 180 181 169 134 189 199
276 210 281 318 268 299 318 338 264 255 310 308 352 74 278 312 298 271 246 42 359 29 14 16 171 151 209 221 216 210 197 195 197 220 230 220 175 175 185 190 189 195 180 164 171 169 171 176 167 172 177 180 182 170 171 178 182 190 193 200 202 204 201 220 205 203 186 171 179 176 167 179 182 182 182 178 182 182 173 179 180 185 180 185 182 196 191 178 160 161 152 183 169 147 168 174 211
246 235 358 295 4 309 316 276 268 260 5 321 354 359 61 257 272 306 285 37 9 349 5 354 28 48 45 41 25 13 171 143 159 189 214 217 213 199 184 184 192 175 169 167 172 175 168 171 166 168 184 184 177 172 175 190 190 192 197 195 211 221 212 213 152 137 136 154 156 167 168 178 181 186 181 181 180 182 175 175 178 187 187 190 178 185 192 167 155 155 161 155 161 196 169 196 143
100 288 247 241 288 262 235 298 305 287 55 292 333 349 100 292 274 332 13 51 343 345 355 6 33 43 51 41 36 21 16 31 12 7 345 209 215 209 207 180 172 183 165 160 163 161 169 168 173 176 193 188 172 181 179 192 199 198 195 198 202 215 215 201 149 156 163 167 169 181 177 175 181 190 189 180 179 181 180 175 180 187 190 185 176 187 178 156 146 155 168 168 179 186 182 147 177
301 315 324 207 210 217 262 224 251 345 340 250 298 324 77 311 280 255 57 318 357 357 344 357 14 23 25 36 46 27 10 4 358 359 310 16 32 30 5 162 188 149 160 162 169 173 173 178 183 186 195 186 176 182 183 193 195 206 204 198 198 201 201 187 171 185 181 181 189 190 189 182 178 185 185 186 182 180 185 180 180 190 186 180 177 180 164 154 149 150 168 174 172 164 172 167 187
26 340 341 356 16 358 16 298 185 45 290 238 111 35 341 180 292 301 334 336 53 52 357 2 4 11 13 2 353 356 357 334 317 331 315 209 207 226 167 276 287 228 185 203 196 186 187 191 188 195 200 193 184 182 186 195 191 202 207 200 202 202 195 192 192 194 192 192 194 193 191 182 186 179 181 183 189 187 185 186 180 184 185 176 182 160 150 147 152 147 156 155 163 177 172 162 157
93 329 348 76 289 34 338 7 345 230 249 237 83 331 6 235 231 260 296 330 19 50 63 47 37 14 6 350 337 327 321 314 322 317 309 291 243 230 219 228 221 231 209 211 215 214 214 209 203 202 213 200 191 183 188 195 195 200 202 205 206 199 202 199 199 200 195 195 193 190 185 194 183 179 187 186 193 188 183 184 183 183 183 176 168 150 157 156 155 155 158 167 166 182 180 161 174
328 32 23 63 24 22 257 277 246 326 316 254 144 191 235 258 279 243 251 20 80 76 82 67 89 73 5 355 334 335 340 317 312 314 294 277 267 265 249 228 222 221 215 205 203 201 208 213 215 215 227 211 200 190 194 196 204 202 200 205 206 198 205 202 203 201 200 197 191 195 191 190 189 192 184 192 184 180 188 187 178 175 169 164 163 161 159 157 154 157 163 173 170 183 167 177 191
197 172 107 163 146 151 255 286 270 237 253 285 290 40 240 1 249 196 99 126 91 93 102 120 111 121 171 274 357 16 13 356 340 331 306 287 276 262 260 256 246 231 224 211 206 205 196 208 208 216 224 216 199 202 199 208 210 206 203 202 204 203 206 205 207 198 198 195 196 195 195 190 190 192 190 184 171 178 183 177 174 171 171 166 159 153 152 152 156 158 162 168 162 174 173 177 184
270 134 94 74 200 116 183 213 137 316 356 333 312 197 206 222 252 293 122 102 106 126 144 120 123 126 104 29 20 17 357 342 331 332 325 306 279 272 273 272 264 258 240 230 223 215 209 217 211 213 214 212 204 201 206 207 211 207 203 202 206 204 207 206 208 206 208 196 195 192 194 190 190 183 183 172 173 170 176 172 169 174 164 157 156 155 157 160 165 158 161 161 171 173 163 175 195
268 57 296 207 136 109 93 22 12 127 62 252 235 315 311 302 327 328 131 129 165 140 128 94 103 134 106 21 7 3 350 337 332 338 336 333 328 307 274 263 270 268 263 243 233 220 221 223 221 226 225 219 212 205 206 202 206 204 210 204 203 205 205 204 204 204 205 200 192 193 186 191 180 176 172 164 159 165 164 163 164 161 156 156 157 161 161 164 169 161 165 167 169 166 163 188 188
11 124 235 234 108 135 122 255 300 223 178 264 76 262 305 31 314 302 340 126 156 104 128 138 124 60 15 357 355 354 339 333 324 327 334 334 334 326 319 293 265 258 257 263 257 241 225 222 220 229 234 230 232 217 210 204 203 208 207 207 207 207 208 210 202 202 197 193 197 189 177 178 183 163 150 152 150 153 155 156 157 160 160 160 164 166 166 167 170 173 172 175 173 167 174 186 200
106 177 261 90 229 54 320 91 323 330 295 289 289 280 265 206 250 256 15 71 116 86 71 49 23 14 344 343 341 343 341 341 344 345 344 343 337 333 329 326 313 291 268 262 270 264 250 242 234 225 231 227 227 224 222 225 216 220 216 214 210 212 212 211 210 202 191 192 194 189 184 180 149 140 142 147 152 156 159 163 162 165 167 169 168 169 170 166 173 180 173 173 172 168 178 186 201
211 26 349 266 83 181 143 202 195 110 249 22 290 356 274 211 217 138 39 97 77 70 34 32 346 341 347 352 343 338 341 337 334 340 337 335 333 329 326 325 325 318 314 299 282 285 279 264 255 254 259 251 239 224 208 212 211 211 219 218 222 214 212 207 203 200 200 197 192 187 179 167 166 146 153 155 160 165 167 171 173 170 171 170 169 170 168 169 176 178 168 163 170 163 176 191 198
6 41 225 8 182 222 147 302 166 177 198 220 263 331 280 273 191 109 81 100 110 94 7 306 282 314 358 348 341 333 329 330 326 331 331 326 324 323 320 315 311 310 304 296 286 270 261 269 269 261 253 259 254 248 228 235 225 232 224 224 219 210 210 201 202 202 200 196 191 186 179 171 144 165 158 166 170 173 176 176 174 174 172 172 168 172 174 170 179 169 171 160 165 168 182 203 181
167 160 195 178 130 97 102 276 34 54 112 235 222 249 270 257 254 108 104 122 132 174 206 265 279 335 346 334 331 337 334 323 321 323 321 319 315 317 314 315 315 322 313 309 287 271 270 264 255 259 259 251 251 252 238 236 230 231 234 242 251 248 229 208 207 205 201 196 190 182 170 156 171 177 170 176 178 180 178 177 173 172 170 172 173 174 172 165 175 163 173 152 164 171 188 203 193